STARLINK-3871, 52496

Orbit data source: Space-Track

STARLINK-3871, 52496 is a payload satellite owned by SpaceX/Seattle (US) in LEO that was launched on Fri, 06 May 2022 UTC via an FALCON 9 launch vehicle from the Air Force Eastern Test Range (AFETR). Payload-class satellites include a variety of spacecraft equipped with specific instruments for various scientific and technological missions. These include communications satellites like Starlink; space stations such as the ISS; scientific satellites like the Hubble; Earth observation satellites from companies like Planet Labs, Umbra, and HawkEye 360; GPS; miniature CubeSats for education and research; and military/defense satellites.

Loading next visibility...
Identifier
52496, 2022-049AX
Orbit
LEO
Country
Flag of USUS
Related business
Manufacturer
SpaceX/Seattle
Mission
Operational Commercial Communications
Bus & Motor
STARLINK, Unknown motor
Mass
297 kg wet, ~220 kg dry
Launch date (UTC)
2022-05-06 (4 years ago)
Launch vehicle
FALCON 9
Launch site
Air Force Eastern Test Range (AFETR)
Object type
Payload
Rocket body
Debris
Shape & HBR
Box + 1 Pan, 10.1 m
Radar Cross Section
13.562 m², Large (>1 m²)

Expand to show TLE details & history
Last TLE update: 22 hours ago

TLE from 22 hours ago
0 STARLINK-3871
1 52496U 22049AX  25346.54046341 -.00002003  00000-0 -10786-3 0  9992
2 52496  53.2164  75.3472 0001270  96.3374 263.7763 15.08826315199304
Epoch: 2025-12-12T12:58Z
TLE epoch observation values (Epoch: 2025-12-12T12:58:16.038Z)
Latitude
-0.00001°
Longitude
159.29975°
Altitude
540.778 km
Speed
7.593 km/s
True Right ascension
05h 01m 23s
True Declination
0° 00' 00"
Sunlit
Object was in full shadow at epoch
Visualization orbit readout
Latitude
Unknown
Longitude
Unknown
Altitude
Unknown
Speed
Unknown
Apparent Right ascension
Unknown
Apparent Declination
Unknown
Sunlit
N/A
Visualization observer readout
Local Sidereal Time
09:14:00
Azimuth
Unknown
Elevation
Unknown
Doppler factor
Unknown
Orbital elements
Apogee altitude
540.909 km
Perigee altitude
539.152 km
Semi-major axis
6,918.167 km
Eccentricity
0.00013
Inclination
53.2164°
RAAN
75.3472°
Arg. of periapsis
96.3374°
True anomaly
263.76183°
Mean anomaly
263.7763°
Eccentric anomaly
263.76907°
Mean motion
3.77187 °/min
Orbital period
95.44 mins
BSTAR
-0.00010786
Loading maneuver chart data...
Computing Atmospheric mass density...
Loading historical data...
Loading historical data...
Loading historical data...
Loading historical data...
Loading historical data...
Loading historical data...
Loading historical data...

Documentation

Showing up to 5 results
|